Wind_Speed
44 44 44 44 44 43 43 44 44 43 43 44 44 45 45 45 45 45 45 45 45 45 45 45 46 46 45 45 45 44 44 44 44 45 45 45 45 44 45 45 44 45 45
45 44 44 44 44 45 45 45 45 45 45 44 45 44 45 45 46 46 46 46 46 46 46 47 47 47 47 47 47 46 46 46 46 47 47 47 47 47 47 47 47 47 47
44 45 45 44 44 45 46 46 47 46 46 46 46 46 46 47 47 47 47 47 47 47 47 48 48 48 49 49 48 48 47 47 48 48 49 49 49 48 48 48 49 49 50
43 44 45 45 45 45 45 46 46 47 47 47 48 47 47 48 48 48 48 48 48 49 49 49 50 50 50 50 50 50 50 50 50 50 50 51 50 50 50 51 51 51 52
43 43 44 45 45 45 46 46 47 47 48 48 49 49 49 49 49 49 49 49 49 50 50 51 51 52 52 52 52 52 52 52 52 53 53 53 53 52 52 52 53 53 54
40 41 43 44 45 45 46 46 47 48 48 49 49 49 49 49 49 50 50 49 49 49 50 51 52 53 53 53 53 53 53 53 53 53 54 54 54 54 54 55 55 55 55
38 40 41 43 44 45 45 45 46 47 47 47 48 48 49 48 49 49 50 49 48 48 49 50 52 52 53 52 53 53 53 54 54 54 54 54 55 55 55 56 56 56 55
36 38 40 42 43 44 44 44 45 46 46 46 47 48 49 49 49 49 49 50 50 49 49 50 51 51 52 52 53 53 54 54 55 55 55 55 55 56 56 57 57 57 56
34 36 37 39 41 42 44 44 45 45 46 46 47 48 49 50 50 50 50 50 51 51 50 50 51 52 53 54 54 54 54 54 55 55 55 55 55 56 57 57 57 57 57
34 34 36 37 38 40 42 43 43 44 45 46 47 47 49 50 51 51 50 51 51 51 51 51 52 52 52 54 54 55 55 55 55 55 55 55 56 56 57 57 57 57 58
33 34 35 36 37 38 40 42 43 43 44 45 46 46 47 49 50 51 51 50 50 50 51 51 52 52 52 53 54 54 54 54 54 55 55 56 55 55 56 56 56 57 58
33 34 34 35 36 37 38 40 42 43 44 45 45 46 47 48 49 50 51 50 50 50 51 52 52 52 52 52 53 53 53 53 53 53 53 54 55 55 56 55 55 56 56
33 33 34 35 35 35 36 38 40 41 42 44 45 45 46 47 48 49 50 50 50 50 51 51 52 52 52 53 53 53 53 53 52 53 53 53 54 55 55 55 55 55 56
32 33 33 34 34 35 36 37 39 41 41 42 44 45 46 47 48 48 50 51 51 51 51 51 51 52 52 53 53 53 53 52 52 53 53 54 54 55 55 55 55 55 55
31 32 32 33 34 35 36 37 38 39 40 42 43 44 45 46 47 48 49 50 51 51 52 52 52 52 52 52 52 52 52 52 52 53 53 53 53 54 54 54 54 55 55
30 31 32 33 34 35 36 37 38 40 41 42 42 42 43 44 45 46 47 49 49 50 51 52 52 51 52 52 52 52 52 52 52 52 52 52 52 52 53 53 54 54 54
30 31 32 33 34 35 37 38 39 40 41 41 42 43 44 45 45 45 46 47 48 49 50 50 51 51 52 52 53 53 52 52 53 52 52 52 51 52 52 53 53 53 53
30 31 32 34 34 35 36 37 38 39 39 41 42 43 43 44 46 46 47 48 49 49 50 50 51 51 51 52 52 53 52 52 51 51 50 50 49 50 50 51 51 51 51
33 33 33 33 34 35 36 37 38 39 39 40 41 42 43 43 44 45 47 47 48 48 48 49 49 49 50 50 51 51 51 51 50 49 49 49 48 48 48 49 49 49 49
35 35 35 35 35 36 36 37 38 38 39 39 39 40 42 42 43 44 45 46 46 46 47 46 46 46 46 47 48 48 49 49 50 49 49 48 47 47 47 47 47 47 47
35 36 36 36 36 37 37 37 38 38 38 38 39 39 40 41 42 43 43 44 44 45 45 45 45 45 45 46 46 46 47 47 48 48 48 48 48 48 47 47 47 47 47
35 35 36 36 36 36 36 37 37 38 38 38 38 39 39 40 40 41 42 43 43 44 44 44 44 44 44 44 44 45 45 45 45 45 46 47 48 48 48 47 46 47 47
35 35 36 35 35 35 36 36 36 37 37 37 37 38 38 39 39 40 41 42 42 43 43 43 43 43 43 43 43 43 43 43 43 43 44 45 46 47 47 47 46 47 47
36 36 35 35 35 35 35 35 35 35 35 36 37 37 38 38 39 39 40 41 41 41 42 43 42 43 43 43 43 43 42 42 42 42 43 44 45 45 46 46 46 46 45
36 36 36 35 35 34 33 33 34 34 35 35 36 37 38 37 38 38 38 39 39 40 40 41 41 41 41 42 43 42 42 42 41 42 42 42 43 43 44 44 44 44 44
35 35 34 34 33 33 33 33 34 35 35 35 35 36 36 36 37 37 37 37 38 39 40 40 40 40 40 41 41 42 41 41 40 40 40 40 40 41 41 41 41 40 41
Wind_Direction
253 253 253 252 251 251 251 251 251 252 252 251 251 250 250 250 250 251 251 252 252 252 253 254 254 253 251 251 252 252 252 253 253 254 254 254 255 257 257 256 256 256 256
254 253 252 251 252 252 251 251 252 252 253 252 252 250 250 250 250 252 252 253 253 254 253 254 253 253 252 253 253 253 254 254 255 255 255 256 256 257 258 257 257 258 258
255 254 253 253 253 252 252 252 252 253 253 252 251 251 251 250 251 252 253 254 254 255 254 254 253 254 254 254 254 254 255 256 256 257 257 257 257 258 258 258 259 259 259
256 255 254 253 253 253 252 251 251 252 252 252 252 252 252 251 251 252 253 254 255 256 255 255 254 254 254 255 254 254 256 256 256 257 257 258 258 259 260 260 261 261 261
257 256 255 254 254 253 253 252 252 252 253 253 253 253 253 252 252 253 254 254 255 256 256 256 255 254 254 255 256 257 258 258 258 258 258 259 259 260 261 261 261 262 262
258 257 255 254 254 254 254 254 254 253 254 254 254 253 253 253 253 254 255 256 256 256 256 256 256 255 255 256 257 259 259 259 260 260 259 259 260 261 261 262 262 262 261
259 258 256 255 254 254 254 254 254 254 254 253 253 253 252 253 253 254 255 256 256 256 256 256 256 256 256 256 257 259 260 260 260 260 260 260 261 261 262 262 262 261 261
261 260 259 257 255 254 253 253 253 253 253 254 254 253 253 253 253 254 255 256 257 258 257 257 258 257 257 258 259 260 261 261 260 260 261 262 262 262 262 262 262 261 260
263 262 262 260 257 254 253 252 252 252 252 253 253 253 253 253 253 254 255 256 257 257 258 258 259 259 259 259 260 260 261 261 261 261 261 262 262 262 263 262 262 261 260
267 266 265 263 260 257 254 252 252 252 253 253 253 253 253 254 254 254 256 256 256 257 257 259 259 259 260 260 261 261 261 261 261 262 262 262 263 263 263 262 261 261 260
267 266 266 265 262 259 256 253 252 252 253 253 253 254 254 254 254 255 255 256 256 257 257 258 259 260 259 259 260 262 262 262 262 262 262 262 263 263 263 262 262 261 260
267 266 266 265 263 261 259 256 255 254 254 253 254 254 255 255 255 256 256 256 257 257 257 258 260 260 259 260 260 261 262 262 262 263 263 263 263 263 263 262 262 261 261
269 267 267 265 265 262 261 260 257 256 256 255 255 256 256 257 256 257 257 257 257 257 257 258 259 260 260 260 259 261 261 261 262 263 263 263 263 263 262 262 262 261 262
271 269 268 266 265 264 262 262 260 259 258 258 258 258 258 258 257 258 258 258 258 258 258 258 259 260 260 260 259 260 261 261 262 262 263 263 262 262 262 262 262 262 262
274 272 270 267 267 266 264 263 262 261 260 260 260 260 260 260 259 259 258 258 258 259 258 259 260 260 260 260 260 260 260 261 261 261 262 262 262 262 262 262 262 262 261
275 273 271 269 268 268 267 265 263 262 261 261 261 260 261 261 260 260 259 259 259 259 259 260 260 260 260 260 260 260 260 260 260 261 261 261 262 262 261 261 262 262 262
276 275 274 272 271 269 268 268 266 264 263 263 262 261 261 261 260 260 259 258 258 259 259 260 260 260 260 260 260 259 260 260 260 260 261 261 261 261 261 261 262 262 263
278 277 276 275 274 273 271 270 270 268 266 266 265 263 262 261 260 260 259 259 258 259 260 260 260 260 260 260 260 260 260 259 259 259 260 261 261 261 261 261 261 261 262
280 279 278 277 275 274 273 271 271 271 269 268 268 266 264 262 261 260 260 259 259 259 260 260 260 260 260 260 260 259 259 259 258 260 260 259 260 260 260 261 261 262 262
281 281 281 280 278 277 275 273 273 271 270 269 269 268 265 264 263 261 260 260 260 260 260 260 261 261 260 260 260 260 259 258 258 258 258 258 259 259 260 261 261 261 262
282 282 282 281 280 279 277 275 274 272 270 269 269 268 267 265 264 263 261 260 260 260 260 260 260 260 260 260 260 260 260 259 258 258 258 257 258 259 260 261 261 261 261
283 283 283 282 281 280 279 277 275 272 271 269 268 268 268 266 265 264 263 262 261 261 260 259 259 259 259 259 259 260 260 260 259 259 258 258 257 258 259 260 261 261 261
285 284 283 283 283 282 280 278 276 273 271 270 269 268 267 267 266 266 265 264 262 261 260 259 259 258 258 259 260 260 260 260 260 260 260 259 258 258 259 259 259 260 260
286 285 284 284 283 282 280 279 277 275 273 271 270 269 268 268 267 267 266 265 264 262 261 260 260 259 259 259 259 259 259 260 260 261 260 260 259 259 258 258 258 259 259
287 286 285 284 283 282 280 278 277 276 274 273 272 270 270 269 268 267 267 266 265 263 262 261 260 259 260 260 259 258 258 260 261 262 262 261 259 258 258 257 257 258 259
287 287 285 284 284 282 280 278 278 277 275 274 273 272 271 270 268 267 266 265 264 263 262 262 261 261 260 259 259 258 258 259 259 260 261 261 260 258 257 256 256 257 258
Height
5672 5673 5675 5676 5678 5680 5682 5684 5686 5688 5689 5691 5692 5694 5697 5699 5702 5703 5705 5706 5708 5709 5710 5711 5712 5714 5716 5718 5720 5722 5725 5727 5730 5732 5734 5736 5737 5739 5740 5741 5743 5745 5746
5660 5661 5663 5665 5667 5669 5670 5672 5674 5676 5678 5680 5681 5683 5685 5688 5690 5692 5694 5695 5697 5698 5699 5700 5701 5703 5705 5707 5709 5711 5713 5716 5718 5720 5722 5724 5726 5728 5729 5730 5732 5733 5735
5647 5649 5651 5653 5655 5657 5658 5660 5663 5664 5666 5668 5670 5672 5674 5676 5678 5680 5682 5684 5685 5686 5687 5688 5690 5692 5694 5696 5698 5700 5702 5704 5706 5708 5710 5712 5714 5716 5717 5718 5720 5721 5722
5635 5637 5639 5641 5643 5644 5646 5648 5650 5652 5654 5655 5657 5659 5662 5664 5666 5668 5670 5672 5673 5674 5675 5676 5678 5680 5682 5684 5685 5687 5689 5691 5693 5695 5697 5699 5701 5703 5705 5706 5707 5708 5709
5622 5624 5626 5628 5630 5632 5634 5636 5638 5640 5641 5643 5645 5647 5649 5652 5654 5656 5657 5659 5660 5662 5663 5664 5665 5667 5669 5671 5673 5675 5676 5678 5680 5682 5684 5685 5687 5688 5691 5693 5693 5694 5695
5610 5611 5613 5615 5617 5619 5621 5623 5625 5627 5629 5630 5632 5634 5637 5639 5641 5643 5645 5646 5648 5649 5650 5651 5653 5654 5656 5658 5660 5661 5663 5665 5666 5668 5670 5671 5673 5674 5676 5678 5679 5679 5680
5598 5599 5600 5602 5604 5606 5608 5610 5612 5614 5616 5617 5619 5621 5624 5626 5628 5630 5632 5634 5635 5636 5638 5639 5640 5641 5643 5644 5646 5648 5649 5651 5652 5654 5656 5657 5658 5660 5661 5662 5664 5665 5666
5587 5588 5589 5590 5591 5593 5595 5597 5599 5601 5603 5605 5606 5608 5611 5613 5615 5617 5619 5620 5622 5623 5625 5626 5627 5628 5629 5631 5632 5634 5636 5637 5639 5640 5641 5643 5644 5645 5646 5647 5649 5650 5652
5577 5577 5577 5578 5579 5580 5582 5584 5586 5588 5590 5592 5594 5595 5597 5599 5601 5603 5605 5606 5608 5609 5611 5612 5613 5614 5615 5617 5618 5620 5621 5623 5624 5625 5626 5627 5629 5630 5631 5632 5633 5635 5636
5566 5566 5566 5566 5567 5568 5569 5571 5574 5575 5577 5579 5580 5582 5584 5586 5588 5589 5591 5592 5594 5595 5597 5598 5600 5601 5602 5603 5604 5606 5607 5608 5609 5610 5611 5613 5613 5614 5615 5616 5617 5619 5621
5556 5556 5555 5555 5555 5556 5557 5559 5561 5563 5564 5566 5567 5569 5570 5572 5573 5575 5577 5578 5580 5581 5583 5584 5585 5587 5588 5589 5590 5591 5592 5593 5594 5595 5597 5598 5598 5599 5600 5600 5601 5603 5604
5546 5545 5545 5544 5544 5545 5546 5547 5548 5550 5552 5553 5554 5556 5557 5558 5560 5561 5563 5564 5566 5567 5569 5570 5571 5572 5573 5574 5576 5577 5578 5579 5580 5581 5581 5582 5583 5584 5585 5585 5586 5587 5589
5536 5535 5534 5534 5534 5534 5535 5535 5536 5537 5539 5540 5541 5543 5544 5545 5546 5548 5549 5550 5551 5553 5554 5556 5557 5558 5559 5560 5561 5562 5563 5564 5565 5566 5567 5567 5568 5569 5570 5570 5571 5572 5574
5526 5525 5524 5524 5524 5524 5524 5524 5524 5525 5526 5527 5528 5529 5530 5532 5533 5534 5535 5536 5537 5539 5540 5541 5542 5543 5544 5545 5546 5548 5549 5550 5551 5551 5552 5553 5553 5554 5555 5556 5557 5557 5558
5516 5515 5514 5514 5513 5513 5512 5512 5512 5513 5514 5515 5516 5516 5517 5518 5519 5520 5521 5522 5523 5524 5525 5526 5527 5528 5529 5531 5532 5533 5534 5535 5536 5536 5537 5538 5538 5539 5540 5541 5541 5542 5543
5506 5505 5504 5504 5503 5502 5502 5501 5501 5501 5502 5502 5503 5503 5504 5505 5506 5506 5506 5507 5509 5510 5511 5512 5513 5514 5515 5516 5517 5518 5519 5520 5521 5521 5522 5523 5523 5524 5525 5526 5527 5527 5528
5496 5495 5494 5493 5492 5491 5490 5490 5489 5489 5489 5489 5490 5490 5491 5492 5492 5492 5493 5494 5495 5496 5496 5498 5499 5499 5500 5501 5502 5503 5504 5505 5506 5507 5507 5508 5509 5509 5510 5511 5512 5513 5514
5486 5485 5483 5482 5481 5480 5479 5478 5477 5476 5476 5477 5477 5477 5477 5478 5478 5479 5479 5480 5481 5482 5483 5484 5484 5485 5485 5486 5487 5488 5488 5490 5491 5492 5493 5494 5495 5495 5496 5497 5497 5499 5500
5477 5475 5473 5471 5470 5468 5467 5466 5465 5464 5464 5464 5464 5463 5463 5464 5464 5464 5465 5466 5467 5468 5468 5469 5470 5470 5471 5471 5472 5473 5474 5475 5477 5478 5478 5479 5481 5482 5482 5483 5484 5485 5487
5466 5464 5462 5460 5459 5457 5455 5454 5453 5452 5452 5451 5451 5450 5450 5450 5450 5450 5451 5452 5453 5454 5454 5455 5456 5456 5457 5458 5458 5458 5460 5462 5463 5464 5465 5466 5467 5468 5468 5469 5471 5472 5473
5456 5453 5451 5449 5447 5445 5444 5442 5441 5440 5439 5439 5438 5438 5437 5437 5437 5437 5438 5438 5439 5440 5441 5442 5442 5443 5444 5444 5445 5445 5446 5447 5449 5450 5451 5453 5453 5454 5455 5456 5457 5459 5459
5445 5443 5440 5438 5436 5434 5432 5430 5429 5428 5427 5426 5426 5425 5425 5424 5424 5424 5424 5425 5425 5426 5427 5428 5429 5429 5430 5431 5431 5432 5433 5434 5435 5436 5438 5439 5440 5441 5442 5443 5444 5445 5445
5434 5432 5429 5427 5424 5422 5420 5418 5417 5416 5415 5414 5413 5413 5412 5412 5412 5412 5412 5412 5412 5413 5414 5415 5416 5416 5417 5418 5419 5419 5420 5421 5422 5423 5424 5425 5426 5427 5429 5430 5431 5431 5432
5423 5421 5418 5416 5413 5411 5408 5407 5405 5404 5403 5402 5401 5401 5400 5400 5399 5399 5399 5399 5399 5399 5400 5401 5402 5403 5404 5405 5406 5406 5407 5408 5409 5410 5411 5411 5412 5413 5415 5416 5417 5418 5419
5412 5409 5407 5404 5402 5400 5397 5395 5394 5392 5391 5390 5389 5388 5388 5387 5387 5387 5386 5386 5386 5386 5387 5388 5389 5390 5391 5392 5393 5393 5394 5395 5396 5397 5398 5398 5399 5400 5402 5403 5404 5405 5406
5401 5398 5395 5393 5391 5388 5386 5384 5382 5381 5380 5378 5377 5376 5375 5375 5374 5374 5374 5373 5374 5374 5375 5375 5376 5377 5378 5379 5379 5380 5381 5382 5383 5384 5385 5386 5387 5388 5389 5390 5392 5393 5394